CAPE
1619 1717 1614 1746 1827 1741 1585 1798 1804 2050 2071 2126 2136 2212 2335 2479 2254 2193 2836 2794 2796 2899 3271 3417 3498 3299 2968 3172 2984 3423 4025 3875 3779 4036 4187 4141 3991 3754 3715 3857 3716 3621 3803 3727 3658 3597 3732 3616 3478 3699 4069 3795 3758 3602 3554 3766 3776 3668 3634 3652 3205 3475 3427 3522 3246 3138 3388 3488 2962 2659 2622 2996 2480 3550 3055 2248 2035 2697 3098 3225 4354 3399 2482 2144 2144
1819 1933 1842 1876 1758 1764 1658 1647 1633 1973 1890 2203 2192 2321 2349 2638 2701 2961 2546 2785 2896 2556 3057 2848 3157 3345 3065 3277 3521 3394 3972 4435 3796 3642 3828 3843 3640 3160 3543 3979 3946 3781 3848 3836 3737 3666 3624 3865 3573 3428 3830 3657 3463 3266 3315 3306 3357 3356 3387 3133 3034 3002 3656 3461 3205 3303 3171 3073 3062 2665 2824 3001 2573 2977 3103 2942 2721 3188 2813 2967 2264 2015 2335 2162 1804
1923 2145 2185 2174 2140 2056 2046 1973 1642 1637 1526 1632 1583 1534 1818 2144 2691 2518 2105 2106 2795 2671 2790 2586 3375 3593 3231 3412 3855 3632 4049 3852 3791 3858 3865 4013 3690 3137 2914 3472 3628 3396 3354 3590 3440 3468 3451 3532 3285 3208 3001 2984 3269 3140 3261 3235 3173 3175 3125 3044 2999 2784 3110 3620 3492 3275 3023 2994 3193 2593 2433 2980 3087 3041 3288 3033 3405 3650 3786 2974 2290 2026 2154 2088 1955
2116 2232 2101 2004 2159 2388 2268 2171 1951 1597 1464 1404 1354 1321 1319 1631 2310 2030 2013 1803 2222 2865 2797 2809 3197 3580 3411 3518 3682 3639 3729 3627 3622 3716 4019 4002 3763 3750 3626 3679 3503 3404 3215 3136 3046 3276 3194 3251 3006 2927 3084 3191 3319 3171 3060 3058 3122 3266 3160 3133 3418 3030 3268 3699 3722 3362 3217 3061 3226 3093 2842 2997 2954 2750 2831 2946 2808 3137 3324 3255 2960 2408 2125 1782 1430
2309 1922 1703 1585 1783 1890 2116 2396 2218 2326 2288 2291 1764 1404 1373 1376 1696 1684 1630 1645 1930 2217 2894 2936 3135 3318 2914 3130 3352 3534 3472 3521 3696 3433 3508 3596 3818 3390 3278 3640 3598 3673 3548 3575 3575 3497 3420 3136 2862 2931 3200 3230 2986 2888 2786 2984 2920 2841 2681 2828 2984 2863 3258 3511 3688 3616 3384 3109 2881 3309 3774 3615 3504 3556 3397 2879 2664 2741 3190 3583 3124 2701 2496 1844 1093
2127 1972 1673 1205 1482 1904 2058 2225 2411 2467 2480 2548 2465 1951 1573 1619 1653 1745 1686 1835 2188 1925 2210 2445 2567 2971 2990 2950 3041 3274 3404 3502 3538 3512 3196 3257 3497 3512 3495 3829 3485 3559 3525 3524 3547 3454 3171 3275 3230 3100 3048 2963 2623 2652 3028 3066 2880 2547 2670 2710 2763 3051 3491 3484 3802 3577 3460 3402 3432 3210 3229 2770 3002 3070 3342 2988 2420 2285 2468 2439 2357 2996 3153 2298 1583
1444 1175 964 1270 1516 2062 2135 2227 2317 2542 2696 2730 2714 2388 2019 1865 1749 1664 1786 1879 1879 1684 1713 2231 2483 2447 2769 2788 2654 2941 3211 3090 3477 3575 3337 3183 3356 3517 3233 3499 3587 3508 3351 3208 2934 3004 3125 3062 3224 3268 3240 3120 2825 2611 2603 2616 2690 2593 2897 3083 2809 2888 2571 2546 3054 3153 3108 3074 2856 3027 3132 2973 3008 2785 3016 3338 2949 2829 2476 2231 2190 2167 2946 3356 2960
1339 1422 1183 1309 1274 1785 1934 1709 1456 1543 1668 1846 2243 2414 2273 1866 1877 1786 1622 1636 1654 1646 1607 1690 1961 2087 2244 2396 2576 2679 2980 2935 3270 3422 3229 3074 3097 3203 3336 3274 3167 3171 3116 3247 2990 2582 2748 2755 2370 2416 2827 3139 3054 2794 2801 2656 2743 2732 2701 3019 3085 3098 2880 2506 2808 2840 2929 2606 2698 2496 2706 3014 3282 3053 2907 3398 3334 3508 3344 2152 2008 2186 2343 2877 2906
1345 1297 1335 1148 880 921 941 869 908 1108 1069 1033 1145 1506 1941 2000 1991 1947 1903 1685 1365 1368 1347 1302 1537 1642 1760 1999 2151 2193 2062 2272 2384 2801 3031 3278 3043 2857 3014 3069 3059 3081 3219 2812 2815 3182 3043 2574 2527 2254 2637 3334 3460 2892 2678 2775 2540 2764 3231 3250 3306 3199 3212 2968 2979 3184 3214 2879 3003 3224 3102 3211 3144 3266 2584 2508 2408 2119 2063 2296 2302 2312 2390 2354 2507
1120 1152 988 850 724 607 652 784 914 929 825 952 1095 1139 1249 1376 1696 1944 1942 1850 2000 1990 2050 1972 1430 1490 1578 1673 1682 1542 1627 1680 2112 1803 1928 2315 2840 2626 2630 2985 2980 2909 3076 3176 2833 2834 2613 2413 2039 2665 2964 3090 3149 2971 2459 2155 2072 2322 2739 2987 3235 3228 3118 3133 3176 3043 3050 3156 2553 2269 2108 1923 1577 1414 1677 1725 1822 2515 2439 2660 2530 2204 2285 2401 2386
914 873 810 761 686 573 588 692 815 849 765 929 1140 1206 1173 1207 1252 1368 1522 1873 2118 2286 2140 2051 1888 1826 1741 1474 1378 1293 1286 1082 1139 1062 1057 1011 1503 2259 2796 3000 3193 3185 2927 3165 3223 2693 2560 2659 2584 2654 3042 3025 3054 2979 2822 2672 2622 2474 2356 2210 2460 3018 2750 2794 2925 2900 2911 2780 2472 2336 2037 2232 2141 1710 1588 1120 1486 1900 1973 2073 2167 2146 2292 2123 2103
845 826 896 889 860 863 896 882 858 814 920 980 996 1185 1344 1340 1280 1173 1273 1324 1666 1680 1900 2059 2280 1996 1865 1858 1700 1534 1452 977 892 748 732 701 731 1542 1936 2327 2478 2635 2700 2514 2552 2547 2537 2366 2348 2118 2215 2512 2445 2531 3048 2575 1772 1404 1268 1213 1200 1368 1833 2423 2564 2618 2814 2571 2604 2462 2308 2066 2175 2167 1637 1264 1708 1711 1852 1929 2231 2443 2245 2075 2009
679 712 724 865 548 594 640 766 770 712 743 966 1204 1412 1486 1456 1352 1461 1626 1521 1669 1780 2031 1791 2073 2054 2213 2297 2052 2001 1544 1102 1031 850 763 757 733 806 1434 1908 2128 2259 2286 2463 2501 2461 2574 2575 2444 2183 2007 2086 2225 2347 2789 2933 2804 2004 1450 1165 1152 1141 1144 1121 1200 1980 2042 2274 2527 2566 2425 2355 2398 2304 1983 2036 2089 1916 2007 1936 2053 2095 2144 2224 2242
729 754 711 691 676 689 628 541 466 407 611 871 1110 1330 1438 1457 1452 1379 1336 1663 1352 1339 1460 1650 1790 1841 2046 2218 2409 2001 1377 1333 1200 929 826 804 757 756 1726 2069 2055 2164 2331 2447 2318 2368 2643 2742 2546 2476 2485 2584 2760 2677 2583 2546 2569 2588 2673 2736 2679 2517 2161 1144 1002 1026 1250 1654 1924 2234 2456 2675 2668 2478 2350 2374 2348 2088 1844 1747 1855 1769 1823 1933 1996
583 658 709 670 571 467 457 518 520 447 437 647 865 1121 1268 1324 1284 1169 1088 1131 1190 1197 1241 1152 1132 1184 1295 1647 2144 1462 1434 1379 1252 984 1018 1074 1020 878 1847 1879 1799 1944 2068 2145 2324 2211 2296 2268 2358 2370 2475 2716 2773 2275 1884 2124 2475 2560 2604 2560 2479 2446 2482 2278 2041 1799 1571 1081 1335 1791 1972 1992 2126 2225 2331 2412 2277 2161 1942 1923 1802 1657 1587 1550 1654
542 605 653 536 456 454 475 385 478 564 518 447 709 892 994 995 1000 1008 1025 1028 1000 1020 1062 1030 1013 1056 1093 1152 1216 1246 1235 1230 1194 1064 1095 1112 1176 1701 1917 2057 1909 1812 1891 1871 1737 1804 1776 1782 2051 2129 2261 2455 1874 998 1040 1291 1638 2031 2376 2443 2394 2287 2172 1907 1486 1177 1216 1375 1595 1617 1579 1383 1091 1681 1961 1358 1434 1865 1993 1620 1340 1484 1644 1916 2211
342 398 437 460 435 487 380 76 366 256 453 596 742 865 901 894 897 907 878 826 827 803 891 942 955 932 970 1036 1080 1155 1162 1184 1205 1162 1132 1167 1158 1788 1918 1893 2013 2036 1967 1934 1895 1732 1644 1576 1685 1846 1830 1975 1197 982 949 929 1383 1770 2054 2004 1928 1914 1935 1964 1625 1131 1068 1071 1111 1111 1111 1076 1052 993 919 831 706 544 812 976 1107 1212 1690 1975 2135
387 424 442 428 322 313 309 291 214 209 162 299 441 586 588 638 670 705 686 670 680 749 752 802 896 928 973 984 951 983 998 990 1107 1194 1171 1120 1124 1491 1610 1686 1765 1837 1815 1798 1910 1966 1642 1172 1147 1430 1373 1184 1017 993 991 966 1502 1510 1698 1743 1856 1855 1997 1896 1713 1348 1189 1087 1053 1069 1080 1068 1064 1054 1050 989 900 768 654 857 1031 1319 1656 1871 1850
284 293 312 330 293 263 263 300 313 358 408 302 332 432 464 472 483 403 556 545 486 454 456 472 555 607 665 752 829 848 932 973 1052 1051 1074 1098 1080 1101 1124 1126 1337 1437 1478 1607 1656 1748 1744 1278 1091 1050 1002 1020 980 1012 1004 1010 1098 1139 1306 1192 1384 1495 1771 1778 1669 1535 1774 1715 1866 2186 1431 1350 1116 1074 1018 975 921 864 783 740 803 1222 1691 1926 1896
8 300 307 272 247 26 245 277 293 270 277 300 313 336 335 344 354 389 438 449 433 388 310 297 421 510 513 515 515 541 672 765 807 865 909 945 977 1017 1039 1033 997 982 948 988 1255 1371 1314 1490 1113 976 968 965 955 968 985 980 1019 1027 1033 1031 1240 1432 1249 1131 1211 1090 1382 1256 1590 1562 1609 1757 1792 1819 1801 1809 1293 1125 1117 1134 1125 1210 1626 1808 1624
170 96 261 240 226 245 77 64 261 118 151 220 241 276 297 323 333 339 358 358 347 310 2 236 369 406 415 419 410 408 428 477 500 500 518 516 526 663 793 892 953 962 968 951 906 817 726 706 688 660 636 641 668 679 698 702 810 879 921 919 851 838 842 861 863 911 1001 1093 1229 1402 1526 1404 1744 1668 1835 1837 1845 1813 1633 1240 1247 1225 1302 1456 1443
59 0 10 126 276 311 238 180 35 237 193 207 250 286 276 262 260 261 272 280 275 260 0 214 290 324 331 327 303 325 348 384 419 432 409 363 332 332 436 572 652 711 760 758 714 668 590 551 516 451 407 410 412 392 363 329 304 301 316 337 340 446 647 744 770 776 819 865 931 1103 1495 1738 1815 1900 1554 1896 1926 1536 1792 1892 1625 1779 1325 1598 1673
148 157 152 147 136 175 239 238 112 151 235 240 237 228 170 134 108 90 28 0 0 0 0 0 0 70 179 201 212 217 234 263 280 293 301 294 268 249 303 341 463 609 655 654 616 585 533 512 480 444 444 424 407 382 365 343 334 344 344 356 346 309 263 212 288 545 722 793 849 1145 1382 1512 1544 1687 1839 1870 1906 1689 1730 1491 1709 1646 1533 1345 1553
0 62 130 120 99 48 0 177 204 193 180 166 166 132 25 0 0 0 0 0 0 0 0 0 0 0 0 0 52 97 148 177 208 207 216 228 208 133 113 196 289 371 410 435 414 358 332 292 301 297 258 224 208 196 175 153 149 175 203 213 206 184 174 152 124 248 361 462 676 921 1113 1140 1196 1299 1478 1594 1350 1453 1404 1242 1385 1072 1468 1536 1644
0 71 98 105 92 88 125 76 147 125 98 28 24 0 0 0 0 0 0 0 0 0 0 0 0 0 0 0 0 0 0 0 0 0 0 0 0 27 107 120 125 126 247 250 244 228 213 208 172 154 125 79 64 54 38 0 0 14 55 55 43 52 218 295 257 234 240 347 426 559 636 822 905 997 1093 1045 1023 915 972 1107 1067 1107 1198 1395 1428
0 0 0 0 0 0 28 40 0 0 0 0 0 0 0 0 0 0 0 0 0 0 0 0 0 0 0 0 0 0 0 0 0 0 0 0 0 0 0 0 0 0 0 72 0 75 69 59 59 47 38 0 0 0 0 0 0 0 0 0 87 100 212 226 217 266 267 218 291 310 376 445 564 712 744 765 779 734 814 843 756 832 1009 1152 1193
0 0 0 0 0 0 0 0 0 0 0 0 0 0 0 0 0 0 0 0 0 0 0 0 0 0 0 0 0 0 0 4 0 0 0 0 0 0 0 0 0 0 0 0 0 0 0 0 0 0 0 0 0 0 0 0 9 0 14 4 34 170 172 177 117 178 188 182 253 321 339 370 377 455 506 672 674 724 644 717 548 606 606 872 960
0 0 0 0 0 0 0 0 0 0 0 0 0 0 0 0 0 0 0 0 0 0 0 0 0 0 0 0 0 0 0 0 0 0 0 0 0 0 0 0 0 0 0 0 0 0 0 0 0 0 0 2 16 0 2 0 0 0 0 0 48 120 78 83 177 209 273 216 262 309 354 421 413 448 500 556 652 705 829 797 779 774 776 751 792
0 0 0 0 0 0 0 0 0 0 0 0 0 0 0 0 0 0 0 0 0 0 0 0 0 0 0 0 0 0 0 0 0 0 0 0 0 0 0 0 0 0 0 0 0 0 0 0 0 0 0 0 0 0 0 0 0 0 0 2 0 14 83 66 82 185 232 176 174 267 228 264 263 318 344 404 626 705 780 801 779 800 797 879 840
0 0 0 0 0 0 0 0 0 0 0 0 0 0 0 0 0 0 0 0 0 0 0 0 0 0 0 0 0 0 0 0 0 0 0 0 0 0 0 0 0 0 0 0 0 0 0 0 0 0 0 0 0 0 0 0 0 0 0 0 3 1 24 44 85 92 52 63 60 20 28 36 65 64 31 22 56 78 169 302 629 732 727 736 761
0 0 0 0 0 0 0 0 0 0 0 0 0 0 0 0 0 0 0 0 0 0 0 0 0 0 0 0 0 0 0 0 0 0 0 0 0 0 0 0 0 0 0 0 0 0 0 0 0 0 0 0 0 0 0 0 0 0 0 0 0 2 36 57 54 67 83 25 6 4 10 11 9 7 0 0 0 0 10 173 189 331 207 147 242
0 0 0 0 0 0 0 0 0 0 0 0 0 0 0 0 0 0 0 0 0 0 0 0 0 0 0 0 0 0 0 0 0 0 0 0 0 0 0 0 0 0 0 0 0 0 0 0 0 0 0 0 0 0 0 0 0 0 0 0 1 29 42 35 68 58 26 6 2 3 2 1 1 0 0 0 0 0 0 0 0 26 95 152 195
0 0 0 0 0 0 0 0 0 0 0 0 0 0 0 0 0 0 0 0 0 0 0 0 0 0 0 0 0 0 0 0 0 0 0 0 0 0 0 0 0 0 0 0 0 0 0 0 0 0 0 0 0 0 0 0 1 4 16 15 13 17 26 55 61 65 9 4 0 1 1 1 0 0 0 0 0 0 0 0 0 0 0 8 38
0 0 0 0 0 0 0 0 0 0 0 0 0 0 0 0 0 0 0 0 1 2 0 0 0 0 0 0 0 0 0 0 0 0 0 0 0 0 0 0 0 0 0 0 0 0 0 0 0 0 0 0 0 0 0 0 8 20 29 35 28 31 59 45 24 11 10 2 1 0 0 0 0 0 0 0 0 0 0 0 0 0 0 0 0
0 0 0 0 0 0 0 0 0 0 0 0 0 0 0 0 0 0 0 0 0 0 0 5 6 0 0 1 0 0 0 0 0 0 0 0 0 0 0 0 0 0 0 0 0 0 0 0 0 0 0 0 0 0 0 0 6 19 30 31 35 67 78 34 26 16 11 2 0 0 0 0 0 0 0 0 0 0 0 0 0 0 0 0 0
0 0 0 0 0 0 0 0 0 0 0 0 0 0 0 0 0 0 0 2 2 3 1 1 0 0 0 0 0 0 0 0 0 0 0 0 0 0 0 0 0 0 0 0 0 0 0 0 0 0 0 0 0 0 0 1 5 13 33 50 64 56 37 25 19 18 16 8 2 0 0 0 0 0 0 0 0 0 0 0 0 0 0 0 0
0 0 0 0 0 0 0 0 0 0 0 0 0 0 0 0 1 3 3 2 1 0 0 0 2 1 4 3 1 0 0 0 0 0 0 0 0 0 0 0 0 0 0 0 0 0 0 0 0 0 0 0 0 0 2 3 8 19 29 48 42 33 32 17 5 0 7 11 6 7 5 0 0 0 0 0 0 0 0 0 0 0 0 0 0
0 0 0 0 0 0 0 0 0 0 2 1 3 5 3 4 5 4 2 0 0 0 0 1 2 2 2 3 0 0 0 0 0 0 0 0 2 0 0 0 0 0 0 0 0 0 0 0 0 0 0 0 1 4 5 8 10 13 20 33 30 25 2 1 4 25 26 12 8 8 8 8 6 0 0 0 0 0 0 0 0 0 0 0 0
0 0 0 0 0 0 0 0 0 1 1 1 2 4 5 3 3 2 1 0 1 1 1 2 2 2 0 4 2 3 1 0 0 0 0 0 0 0 0 0 0 0 0 0 0 0 0 1 3 7 10 12 12 14 13 11 12 15 18 15 14 13 15 22 26 28 23 14 10 9 10 9 6 1 0 0 0 0 0 0 0 0 0 0 0
0 0 0 0 0 0 0 0 0 1 2 3 3 2 2 0 0 1 2 2 2 2 2 0 0 2 4 4 4 3 2 2 2 3 3 4 3 4 5 5 6 6 5 4 3 2 4 5 8 7 12 11 12 14 15 18 19 25 28 27 18 20 20 15 8 10 15 13 12 10 8 7 4 3 0 0 0 0 0 0 0 0 0 0 0
0 0 0 1 1 0 0 0 0 0 0 0 0 0 1 3 3 4 2 2 1 1 0 3 3 4 4 1 2 4 7 4 4 4 5 4 4 4 6 8 8 8 9 12 12 13 12 12 14 14 14 15 14 15 16 17 18 21 25 24 22 21 18 12 12 12 13 12 12 10 9 6 4 4 1 1 0 0 0 0 0 0 0 0 0
0 0 0 0 2 0 0 0 0 0 0 0 0 0 2 4 3 2 2 3 3 3 4 5 5 4 2 3 6 2 4 7 8 7 7 5 5 4 5 8 8 12 10 12 13 13 16 20 16 17 17 16 16 16 17 20 20 26 24 17 15 18 16 15 14 16 18 12 10 10 12 6 6 2 0 0 0 0 0 0 0 0 0 0 0
0 0 2 2 0 0 0 0 0 0 0 0 0 2 4 2 3 5 6 6 6 6 5 5 4 5 7 2 2 0 6 9 9 8 9 10 8 10 11 10 8 8 15 22 24 16 12 17 19 19 16 16 22 24 26 27 27 24 16 12 6 6 5 9 12 14 15 16 16 12 10 10 10 7 5 2 0 0 0 0 0 0 0 0 0
0 0 0 0 0 0 0 0 0 0 0 1 2 3 5 6 5 5 5 4 4 4 4 4 4 6 6 4 2 4 6 8 8 8 11 11 11 11 10 10 11 12 15 17 17 20 16 18 21 19 18 12 7 7 1 2 6 8 8 8 7 5 5 2 2 2 2 3 2 1 1 2 2 4 4 2 2 0 0 0 0 0 0 0 0
0 0 0 0 0 0 0 1 0 0 2 2 5 5 6 4 4 4 3 4 4 4 3 3 3 4 5 3 4 4 4 5 10 10 8 10 10 12 11 12 13 14 14 15 16 11 11 7 8 8 4 3 3 1 0 0 2 6 6 6 6 6 4 3 4 3 3 1 0 0 0 0 0 0 1 0 2 1 0 1 1 0 1 2 0
0 0 0 0 0 0 0 0 4 2 4 5 5 6 4 4 4 5 4 4 4 4 4 4 4 5 4 3 2 4 4 6 6 7 10 10 9 10 12 13 11 14 15 12 12 13 9 11 10 8 7 5 2 0 0 0 1 3 4 7 8 8 8 10 9 6 4 2 1 1 1 0 0 0 3 2 1 1 2 2 4 6 6 5 1
0 0 0 0 0 0 2 4 4 6 4 4 6 5 4 4 4 5 5 5 5 6 5 4 5 3 2 3 3 5 4 6 8 9 10 11 10 10 12 16 16 16 20 15 11 11 13 11 11 9 8 8 6 4 1 0 1 4 5 6 5 4 6 10 10 7 5 4 6 4 2 2 0 0 0 1 1 1 2 2 2 2 2 2 3
0 0 0 0 0 0 2 4 5 6 4 4 4 4 3 3 3 4 4 4 5 5 4 5 4 4 5 4 6 6 7 6 8 8 9 11 10 10 12 15 18 16 15 13 13 15 14 13 11 9 5 4 4 4 4 3 2 1 0 1 3 9 10 7 6 4 4 3 1 2 2 2 0 0 0 0 0 0 1 1 1 1 2 1 2
0 0 0 0 0 2 2 3 7 2 2 0 1 0 1 3 6 6 6 6 5 6 3 4 4 5 5 7 6 5 7 10 10 11 9 10 12 12 11 13 16 14 14 14 14 14 14 11 11 8 6 6 5 4 2 4 4 3 3 1 0 0 0 2 2 4 3 3 0 0 1 1 1 0 0 1 1 1 1 1 1 1 1 2 2
2 0 0 0 0 2 5 6 5 1 0 1 3 3 4 7 6 7 6 6 6 6 6 6 7 7 6 6 8 11 10 10 9 11 12 13 13 14 13 8 6 9 12 16 14 13 13 12 12 10 9 10 7 5 3 2 3 2 4 3 0 0 0 0 0 0 2 0 1 2 1 1 1 1 0 0 0 0 0 1 1 1 2 2 2
0 0 2 2 3 6 6 4 2 1 1 0 0 0 0 1 5 0 3 1 1 1 5 4 6 7 8 9 15 14 12 12 13 12 12 13 13 13 12 10 8 9 11 12 14 13 15 13 12 10 11 9 7 4 3 2 2 4 0 0 0 0 0 0 0 0 0 0 1 1 0 0 0 0 1 0 0 0 1 1 1 1 1 1 1
Wind_Speed
8 9 11 12 13 12 12 12 10 11 12 13 11 10 10 10 10 11 13 12 12 11 10 9 8 8 8 8 7 7 6 5 5 6 6 5 5 4 5 5 4 4 5 5 6 7 7 7 6 6 6 5 5 4 4 4 4 3 4 3 2 3 2 2 0 2 1 2 2 1 2 2 1 0 1 1 3 4 6 4 5 4 4 3 4
9 10 11 12 11 12 12 12 11 11 11 14 13 13 12 12 11 13 13 14 13 12 11 10 9 9 8 8 8 7 7 6 5 5 5 6 5 6 5 5 4 3 4 4 5 6 7 7 7 7 7 6 5 4 4 4 3 3 4 5 4 4 5 3 2 1 1 1 2 2 1 3 1 0 1 1 2 3 4 4 4 3 2 2 2
12 12 12 12 11 12 13 12 11 10 10 13 12 12 13 12 13 13 13 14 15 14 13 12 12 10 10 10 9 8 8 7 6 5 5 5 4 4 5 5 4 3 3 3 3 5 5 6 6 8 9 8 8 7 7 6 6 6 6 7 6 6 8 8 6 4 3 1 1 1 3 3 1 1 0 1 1 2 1 2 3 2 1 2 2
18 17 17 15 14 14 13 13 11 11 11 13 13 13 14 14 14 13 12 13 15 16 14 14 13 12 11 11 10 9 9 8 7 6 5 5 5 4 4 4 4 4 3 3 3 4 4 5 6 7 8 8 8 9 9 9 8 8 7 8 8 8 9 10 10 7 6 3 2 1 2 2 1 1 1 1 0 0 0 1 0 0 1 1 1
22 19 19 18 17 15 13 14 13 12 13 15 14 14 15 15 16 14 12 12 13 15 16 15 15 14 12 11 10 10 9 9 9 7 7 6 5 5 5 5 4 3 3 4 3 3 3 3 5 6 7 6 6 7 8 9 9 8 8 9 8 8 9 9 9 8 7 4 2 2 1 1 2 2 2 3 3 1 1 1 1 1 1 2 2
23 22 21 22 22 19 17 16 15 15 14 14 15 15 16 17 17 17 15 13 13 13 15 16 16 15 13 12 11 11 10 10 10 9 9 8 8 7 6 5 4 4 4 4 4 4 4 4 5 6 6 6 6 7 7 7 7 6 6 6 6 7 6 6 7 7 6 5 4 2 2 3 4 4 3 5 4 3 3 3 2 2 2 4 4
24 21 21 21 24 25 22 19 20 20 20 19 19 18 18 18 19 19 19 17 15 13 14 16 17 16 15 13 12 12 11 11 12 11 11 11 10 9 8 7 6 5 4 4 4 4 5 5 5 6 6 6 6 6 7 6 7 6 5 5 5 5 4 4 5 5 6 5 5 5 4 5 5 4 5 6 5 5 3 4 3 3 3 4 3
21 23 20 19 23 27 28 29 24 24 23 23 22 22 22 21 22 23 23 21 18 16 14 15 17 17 16 16 14 14 13 13 13 13 13 13 12 11 10 8 7 6 5 5 5 6 6 6 6 7 7 7 7 7 7 7 8 7 6 6 6 6 5 5 5 5 6 6 6 6 7 7 7 7 7 8 5 5 5 4 3 3 3 4 4
24 22 25 27 26 25 29 29 31 30 27 29 28 25 24 23 21 21 23 23 22 19 17 17 19 20 19 19 17 16 15 15 15 15 14 13 13 12 11 11 9 8 7 7 7 8 8 7 7 7 8 9 9 8 7 8 9 8 7 6 6 6 6 6 6 6 6 7 7 8 8 9 9 8 7 6 4 2 3 4 3 2 3 5 6
27 26 26 26 28 29 28 29 29 30 28 28 32 30 25 21 21 21 22 24 24 23 21 19 18 19 19 18 18 17 17 17 17 15 14 15 14 14 13 13 12 11 11 10 9 9 8 8 9 8 9 9 9 8 8 8 9 8 7 7 6 7 7 7 7 7 8 8 7 7 7 8 9 8 7 5 4 4 4 4 4 5 6 6 7
25 27 28 29 30 29 26 26 29 29 27 28 31 30 25 23 22 21 22 25 26 26 23 20 18 18 18 17 17 17 17 22 27 19 16 14 14 13 14 14 14 14 14 13 12 10 10 10 9 9 10 10 10 11 10 10 11 11 11 10 9 9 8 9 9 9 9 9 9 9 8 8 9 9 8 5 5 4 5 5 5 7 7 9 9
23 23 23 26 26 25 23 23 25 25 23 23 27 32 30 26 24 23 22 22 25 25 24 22 21 20 19 19 18 19 22 30 24 22 17 16 16 14 14 15 15 16 16 15 14 13 11 10 10 10 11 10 11 12 13 12 12 11 11 11 11 12 12 11 11 11 10 9 9 9 9 9 9 11 9 7 7 7 7 7 6 7 8 8 8
25 23 21 22 21 20 19 19 20 20 20 20 22 28 33 31 28 26 25 25 26 26 25 24 23 23 23 22 21 22 26 27 25 25 23 18 18 16 17 16 16 16 16 17 16 15 14 13 11 12 12 13 12 11 12 12 13 14 13 12 12 13 14 15 15 13 11 11 10 9 11 11 9 11 11 10 10 8 8 8 9 8 9 8 8
32 31 32 31 29 25 21 20 21 20 20 21 22 26 31 33 32 31 30 29 30 31 30 28 28 27 26 25 24 25 27 26 26 26 25 23 21 18 20 19 18 17 18 18 18 18 18 17 16 15 15 15 14 13 12 11 11 12 13 14 14 15 18 19 18 17 15 13 12 11 12 14 12 12 11 12 11 10 9 8 9 9 8 7 8
33 32 32 31 31 29 28 27 27 25 23 22 22 25 28 31 32 31 30 30 31 31 30 29 28 27 27 26 24 24 28 27 28 28 27 24 21 17 22 21 21 21 20 20 20 19 19 19 18 18 18 18 18 17 13 12 12 13 13 13 14 15 16 17 19 20 20 18 15 13 12 13 13 12 13 14 14 13 12 10 10 10 9 8 10
36 35 35 33 32 30 28 27 26 25 25 25 25 24 26 29 31 31 31 31 31 30 29 28 28 28 28 27 25 24 29 31 30 29 28 25 18 21 23 23 23 23 24 23 23 23 22 22 22 22 22 21 26 25 19 16 14 13 13 13 14 14 16 18 20 18 16 15 15 14 13 13 13 13 14 14 15 15 14 14 15 14 11 10 11
37 36 35 34 33 31 31 nan 27 24 21 24 25 22 21 24 26 26 28 29 28 28 28 28 28 28 28 28 28 28 29 33 32 31 30 27 24 26 25 24 24 24 24 24 24 24 24 24 24 24 24 26 32 27 24 18 17 17 16 15 15 15 16 18 22 21 19 18 14 11 8 8 8 9 10 10 15 16 15 14 14 13 10 8 9
40 39 38 37 34 31 29 29 28 25 21 19 19 18 17 18 20 21 23 24 25 26 26 27 28 28 29 29 28 28 32 38 37 36 33 31 27 29 28 26 25 25 24 24 24 25 26 27 25 25 25 30 31 30 25 21 20 20 19 18 17 16 17 19 19 20 23 21 18 15 14 12 12 11 11 12 15 23 20 16 13 12 10 10 9
41 41 40 40 38 36 34 32 31 29 26 22 20 20 19 19 19 20 21 21 22 21 22 23 25 27 28 30 32 31 36 37 39 39 40 38 33 32 30 28 26 25 24 25 25 25 27 30 36 33 32 32 31 31 30 26 24 21 19 17 15 16 18 19 19 19 20 20 19 20 19 19 18 19 19 18 19 25 22 18 15 15 14 13 12
nan 39 39 40 40 nan 38 36 34 34 33 30 26 23 22 23 23 24 23 23 22 20 20 21 24 27 28 28 29 31 32 34 38 42 41 41 37 35 34 33 31 31 30 30 29 29 30 30 36 36 35 32 31 31 31 30 27 25 23 20 19 17 21 21 20 20 19 18 19 19 18 18 18 17 18 20 23 26 24 21 19 19 18 16 16
42 nan 40 40 40 40 nan nan 37 37 36 34 30 28 26 26 26 26 26 26 25 25 nan 26 29 28 27 26 26 26 25 28 33 37 37 38 36 33 32 32 31 31 32 32 32 32 32 31 32 37 37 35 32 31 30 29 27 26 24 22 20 22 23 20 20 20 20 21 21 21 21 22 22 21 21 22 22 23 23 23 22 22 21 19 17
nan nan nan 42 39 39 40 40 nan 38 38 37 35 33 31 31 30 29 28 29 30 30 nan 30 30 30 29 28 27 26 27 29 28 33 34 34 33 33 29 28 26 26 28 29 30 31 31 32 31 37 38 35 33 31 28 28 27 26 25 23 20 20 22 21 21 23 23 23 22 22 23 23 22 22 22 23 24 25 25 24 24 24 25 24 22
46 46 46 46 44 42 41 42 41 39 39 40 39 37 35 35 35 nan nan nan nan nan nan nan nan nan 31 30 29 29 28 30 33 33 34 35 34 34 33 30 28 27 29 30 30 29 29 29 30 35 33 32 30 29 27 25 24 26 25 24 22 23 23 24 25 24 25 25 25 24 25 25 25 25 25 26 27 27 27 26 26 25 25 24 23
nan nan 45 46 nan nan nan 44 43 41 42 42 41 39 nan nan nan nan nan nan nan nan nan nan nan nan nan nan nan nan 31 31 35 37 35 35 36 37 37 34 32 30 28 30 29 29 27 27 26 25 24 24 25 26 26 25 26 23 23 23 24 24 27 27 28 28 27 27 27 27 26 27 27 26 28 29 29 29 28 27 26 26 26 25 23
nan nan nan 46 nan nan 46 nan 45 44 nan nan nan nan nan nan nan nan nan nan nan nan nan nan nan nan nan nan nan nan nan nan nan nan nan nan nan nan 37 35 33 31 28 29 28 28 26 23 21 21 22 nan nan nan nan nan nan nan nan nan nan nan 28 28 29 29 29 29 29 29 29 29 29 29 29 29 29 29 29 29 29 29 28 26 24
nan nan nan nan nan nan nan nan nan nan nan nan nan nan nan nan nan nan nan nan nan nan nan nan nan nan nan nan nan nan nan nan nan nan nan nan nan nan nan nan nan nan nan nan nan nan nan nan nan nan nan nan nan nan nan nan nan nan nan nan nan nan 30 30 30 30 29 30 31 31 31 32 32 32 31 31 31 32 32 32 32 31 31 30 27
nan nan nan nan nan nan nan nan nan nan nan nan nan nan nan nan nan nan nan nan nan nan nan nan nan nan nan nan nan nan nan nan nan nan nan nan nan nan nan nan nan nan nan nan nan nan nan nan nan nan nan nan nan nan nan nan nan nan nan nan nan 32 31 31 31 31 30 30 31 32 32 33 32 31 32 33 33 33 34 34 33 33 33 32 30
nan nan nan nan nan nan nan nan nan nan nan nan nan nan nan nan nan nan nan nan nan nan nan nan nan nan nan nan nan nan nan nan nan nan nan nan nan nan nan nan nan nan nan nan nan nan nan nan nan nan nan nan nan nan nan nan nan nan nan nan nan 34 nan nan 31 33 33 33 33 33 33 34 33 33 33 32 33 34 35 34 34 33 33 32 30
nan nan nan nan nan nan nan nan nan nan nan nan nan nan nan nan nan nan nan nan nan nan nan nan nan nan nan nan nan nan nan nan nan nan nan nan nan nan nan nan nan nan nan nan nan nan nan nan nan nan nan nan nan nan nan nan nan nan nan nan nan nan nan nan nan 39 39 39 38 37 37 36 36 35 34 34 35 34 35 35 34 32 32 31 29
nan nan nan nan nan nan nan nan nan nan nan nan nan nan nan nan nan nan nan nan nan nan nan nan nan nan nan nan nan nan nan nan nan nan nan nan nan nan nan nan nan nan nan nan nan nan nan nan nan nan nan nan nan nan nan nan nan nan nan nan nan nan nan nan nan nan nan nan nan nan nan nan nan nan nan nan nan nan 38 36 35 35 33 32 30
nan nan nan nan nan nan nan nan nan nan nan nan nan nan nan nan nan nan nan nan nan nan nan nan nan nan nan nan nan nan nan nan nan nan nan nan nan nan nan nan nan nan nan nan nan nan nan nan nan nan nan nan nan nan nan nan nan nan nan nan nan nan nan nan nan nan nan nan nan nan nan nan nan nan nan nan nan nan nan 39 38 38 37 35 32
nan nan nan nan nan nan nan nan nan nan nan nan nan nan nan nan nan nan nan nan nan nan nan nan nan nan nan nan nan nan nan nan nan nan nan nan nan nan nan nan nan nan nan nan nan nan nan nan nan nan nan nan nan nan nan nan nan nan nan nan nan nan nan nan nan nan nan nan nan nan nan nan nan nan nan nan nan nan nan nan nan nan nan 37 35
nan nan nan nan nan nan nan nan nan nan nan nan nan nan nan nan nan nan nan nan nan nan nan nan nan nan nan nan nan nan nan nan nan nan nan nan nan nan nan nan nan nan nan nan nan nan nan nan nan nan nan nan nan nan nan nan nan nan nan nan nan nan nan nan nan nan nan nan nan nan nan nan nan nan nan nan nan nan nan nan nan nan nan nan nan
nan nan nan nan nan nan nan nan nan nan nan nan nan nan nan nan nan nan nan nan nan nan nan nan nan nan nan nan nan nan nan nan nan nan nan nan nan nan nan nan nan nan nan nan nan nan nan nan nan nan nan nan nan nan nan nan nan nan nan nan nan nan nan nan nan nan nan nan nan nan nan nan nan nan nan nan nan nan nan nan nan nan nan nan nan
nan nan nan nan nan nan nan nan nan nan nan nan nan nan nan nan nan nan nan nan nan nan nan nan nan nan nan nan nan nan nan nan nan nan nan nan nan nan nan nan nan nan nan nan nan nan nan nan nan nan nan nan nan nan nan nan nan nan nan nan nan nan nan nan nan nan nan nan nan nan nan nan nan nan nan nan nan nan nan nan nan nan nan nan nan
nan nan nan nan nan nan nan nan nan nan nan nan nan nan nan nan nan nan nan nan nan nan nan nan nan nan nan nan nan nan nan nan nan nan nan nan nan nan nan nan nan nan nan nan nan nan nan nan nan nan nan nan nan nan nan nan nan nan nan nan nan nan nan nan nan nan nan nan nan nan nan nan nan nan nan nan nan nan nan nan nan nan nan nan nan
nan nan nan nan nan nan nan nan nan nan nan nan nan nan nan nan nan nan nan nan nan nan nan nan nan nan nan nan nan nan nan nan nan nan nan nan nan nan nan nan nan nan nan nan nan nan nan nan nan nan nan nan nan nan nan nan nan nan nan nan nan nan nan nan nan nan nan nan nan nan nan nan nan nan nan nan nan nan nan nan nan nan nan nan nan
nan nan nan nan nan nan nan nan nan nan nan nan nan nan nan nan nan nan nan nan nan nan nan nan nan nan nan nan nan nan nan nan nan nan nan nan nan nan nan nan nan nan nan nan nan nan nan nan nan nan nan nan nan nan nan nan nan nan nan nan nan nan nan nan nan nan nan nan nan nan nan nan nan nan nan nan nan nan nan nan nan nan nan nan nan
nan nan nan nan nan nan nan nan nan nan nan nan nan nan nan nan nan nan nan nan nan nan nan nan nan nan nan nan nan nan nan nan nan nan nan nan nan nan nan nan nan nan nan nan nan nan nan nan nan nan nan nan nan nan nan nan nan nan nan nan nan nan nan nan nan nan nan nan nan nan nan nan nan nan nan nan nan nan nan nan nan nan nan nan nan
nan nan nan nan nan nan nan nan nan nan nan nan nan nan nan nan nan nan nan nan nan nan nan nan nan nan nan nan nan nan nan nan nan nan nan nan nan nan nan nan nan nan nan nan nan nan nan nan nan nan nan nan nan nan nan nan nan nan nan nan nan nan nan nan nan nan nan nan nan nan nan nan nan nan nan nan nan nan nan nan nan nan nan nan nan
nan nan nan nan nan nan nan nan nan nan nan nan nan nan nan nan nan nan nan nan nan nan nan nan nan nan nan nan nan nan nan nan nan nan nan nan nan nan nan nan nan nan nan nan nan nan nan nan nan nan nan nan nan nan nan nan nan nan nan nan nan nan nan nan nan nan nan nan nan nan nan nan nan nan nan nan nan nan nan nan nan nan nan nan nan
nan nan nan nan nan nan nan nan nan nan nan nan nan nan nan nan nan nan nan nan nan nan nan nan nan nan nan nan nan nan nan nan nan nan nan nan nan nan nan nan nan nan nan nan nan nan nan nan nan nan nan nan nan nan nan nan nan nan nan nan nan nan nan nan nan nan nan nan nan nan nan nan nan nan nan nan nan nan nan nan nan nan nan nan nan
nan nan nan nan nan nan nan nan nan nan nan nan nan nan nan nan nan nan nan nan nan nan nan nan nan nan nan nan nan nan nan nan nan nan nan nan nan nan nan nan nan nan nan nan nan nan nan nan nan nan nan nan nan nan nan nan nan nan nan nan nan nan nan nan nan nan nan nan nan nan nan nan nan nan nan nan nan nan nan nan nan nan nan nan nan
nan nan nan nan nan nan nan nan nan nan nan nan nan nan nan nan nan nan nan nan nan nan nan nan nan nan nan nan nan nan nan nan nan nan nan nan nan nan nan nan nan nan nan nan nan nan nan nan nan nan nan nan nan nan nan nan nan nan nan nan nan nan nan nan nan nan nan nan nan nan nan nan nan nan nan nan nan nan nan nan nan nan nan nan nan
nan nan nan nan nan nan nan nan nan nan nan nan nan nan nan nan nan nan nan nan nan nan nan nan nan nan nan nan nan nan nan nan nan nan nan nan nan nan nan nan nan nan nan nan nan nan nan nan nan nan nan nan nan nan nan nan nan nan nan nan nan nan nan nan nan nan nan nan nan nan nan nan nan nan nan nan nan nan nan nan nan nan nan nan nan
nan nan nan nan nan nan nan nan nan nan nan nan nan nan nan nan nan nan nan nan nan nan nan nan nan nan nan nan nan nan nan nan nan nan nan nan nan nan nan nan nan nan nan nan nan nan nan nan nan nan nan nan nan nan nan nan nan nan nan nan nan nan nan nan nan nan nan nan nan nan nan nan nan nan nan nan nan nan nan nan nan nan nan nan nan
nan nan nan nan nan nan nan nan nan nan nan nan nan nan nan nan nan nan nan nan nan nan nan nan nan nan nan nan nan nan nan nan nan nan nan nan nan nan nan nan nan nan nan nan nan nan nan nan nan nan nan nan nan nan nan nan nan nan nan nan nan nan nan nan nan nan nan nan nan nan nan nan nan nan nan nan nan nan nan nan nan nan nan nan nan
nan nan nan nan nan nan nan nan nan nan nan nan nan nan nan nan nan nan nan nan nan nan nan nan nan nan nan nan nan nan nan nan nan nan nan nan nan nan nan nan nan nan nan nan nan nan nan nan nan nan nan nan nan nan nan nan nan nan nan nan nan nan nan nan nan nan nan nan nan nan nan nan nan nan nan nan nan nan nan nan nan nan nan nan nan
nan nan nan nan nan nan nan nan nan nan nan nan nan nan nan nan nan nan nan nan nan nan nan nan nan nan nan nan nan nan nan nan nan nan nan nan nan nan nan nan nan nan nan nan nan nan nan nan nan nan nan nan nan nan nan nan nan nan nan nan nan nan nan nan nan nan nan nan nan nan nan nan nan nan nan nan nan nan nan nan nan nan nan nan nan
nan nan nan nan nan nan nan nan nan nan nan nan nan nan nan nan nan nan nan nan nan nan nan nan nan nan nan nan nan nan nan nan nan nan nan nan nan nan nan nan nan nan nan nan nan nan nan nan nan nan nan nan nan nan nan nan nan nan nan nan nan nan nan nan nan nan nan nan nan nan nan nan nan nan nan nan nan nan nan nan nan nan nan nan nan
nan nan nan nan nan nan nan nan nan nan nan nan nan nan nan nan nan nan nan nan nan nan nan nan nan nan nan nan nan nan nan nan nan nan nan nan nan nan nan nan nan nan nan nan nan nan nan nan nan nan nan nan nan nan nan nan nan nan nan nan nan nan nan nan nan nan nan nan nan nan nan nan nan nan nan nan nan nan nan nan nan nan nan nan nan
Wind_Direction
233 230 230 227 231 237 240 241 242 241 244 245 240 241 239 237 232 221 225 222 226 229 229 226 225 222 216 218 215 224 233 239 254 263 274 281 279 267 256 257 250 234 230 217 219 224 227 224 226 232 236 230 242 243 252 275 272 259 255 253 236 258 254 264 263 122 133 282 297 182 196 219 178 229 164 154 137 133 120 119 105 115 117 111 101
239 235 228 225 225 229 235 241 244 245 250 250 246 243 240 242 240 236 228 225 225 224 224 221 222 221 217 217 218 216 221 231 235 253 267 277 284 282 283 282 271 254 237 226 229 237 240 236 235 240 252 247 244 246 251 247 255 255 269 268 259 262 282 283 276 316 113 232 262 270 309 300 122 253 209 142 142 114 135 141 146 142 125 111 93
237 236 234 232 232 230 230 231 234 241 246 246 248 243 242 241 244 240 235 232 234 227 225 222 226 224 216 217 222 220 222 219 229 239 254 269 276 276 275 279 275 261 263 258 240 242 241 244 242 245 251 249 248 248 247 247 248 249 249 261 265 272 288 301 305 307 301 285 267 226 263 276 300 152 160 334 37 32 94 156 161 158 168 102 71
245 244 243 240 235 235 239 236 232 228 233 237 240 238 235 237 243 242 241 238 240 240 234 230 232 231 222 220 220 221 227 226 226 233 244 255 261 269 271 272 268 264 259 254 249 250 238 237 240 243 246 247 249 247 250 250 252 259 260 268 275 275 281 294 307 302 299 296 272 208 229 247 276 281 289 292 233 268 359 198 71 334 181 211 96
250 249 249 249 249 248 246 249 246 237 232 233 238 238 234 231 235 239 243 243 241 241 241 239 237 237 230 226 224 226 228 231 231 228 233 241 249 251 254 262 262 261 256 258 259 250 249 246 243 248 253 249 249 252 249 246 252 257 262 267 271 274 280 289 295 302 298 294 259 247 230 271 272 257 262 246 247 256 256 263 246 285 285 250 248
247 242 242 248 241 241 247 252 252 247 239 236 241 241 237 233 231 236 240 245 246 239 237 237 238 238 234 229 227 227 231 237 238 232 230 236 242 244 251 256 256 255 254 254 251 252 247 248 253 256 257 251 241 240 242 238 247 253 252 257 262 271 281 289 296 296 298 292 286 244 248 221 237 259 268 274 260 243 238 245 255 295 280 242 235
242 243 236 237 244 242 241 245 249 249 246 241 240 241 239 234 231 229 234 239 242 239 237 237 238 235 235 232 229 230 231 235 241 241 239 240 242 243 243 250 253 253 252 246 237 237 235 238 248 257 262 260 246 240 240 238 244 237 243 246 247 256 256 262 274 279 284 283 284 293 282 280 278 268 295 305 319 329 288 248 237 254 285 280 258
248 248 252 251 249 247 248 250 251 250 251 247 241 241 243 244 238 232 230 233 236 238 236 237 237 237 235 234 233 234 237 238 243 245 245 247 251 253 252 248 245 248 245 246 241 235 232 229 227 243 258 264 261 252 251 250 250 242 244 249 250 253 247 248 255 263 270 274 283 279 288 292 299 312 318 324 320 316 307 271 246 236 235 277 298
253 254 252 247 246 250 258 257 250 238 232 241 245 238 237 239 241 238 236 231 232 235 237 237 238 238 236 234 233 234 236 240 243 248 251 257 260 260 264 264 260 252 245 240 247 250 246 238 240 240 255 267 269 262 250 254 255 252 254 255 258 264 266 266 270 272 278 279 281 294 300 298 302 309 308 306 309 280 267 282 274 253 237 247 272
256 256 261 264 264 263 265 265 263 259 253 248 243 238 231 231 234 236 239 237 236 233 232 234 235 238 237 236 235 235 237 238 249 256 252 249 259 263 268 273 274 271 265 257 252 255 253 250 247 260 272 282 287 297 307 312 311 300 285 281 279 280 281 283 288 290 290 291 292 293 298 299 296 299 304 309 316 316 288 277 245 222 213 228 270
257 255 257 256 256 262 268 271 272 273 269 263 254 246 240 237 237 236 236 238 238 237 235 234 234 238 239 234 232 234 235 238 240 247 254 251 249 256 264 271 276 278 277 274 269 263 263 266 261 272 286 293 300 313 315 314 315 322 328 327 316 306 293 292 293 291 292 295 296 302 302 302 303 298 303 300 292 271 260 256 237 231 228 220 228
256 255 260 262 263 266 268 271 277 280 278 268 255 246 245 244 241 239 238 238 238 235 235 236 237 238 240 238 234 233 237 232 232 246 255 267 271 263 263 266 269 274 276 277 275 272 270 270 272 271 274 277 267 275 290 302 309 311 311 312 313 319 318 307 290 283 282 279 284 287 286 292 295 295 291 279 269 258 251 242 239 237 237 238 241
249 247 252 260 270 276 278 277 283 280 280 278 267 256 250 246 242 241 240 240 241 241 238 237 237 237 238 239 238 239 241 234 236 241 250 261 276 273 265 264 264 268 271 275 276 275 271 267 262 262 259 267 274 271 273 278 296 311 313 311 312 317 318 320 318 308 290 291 291 290 294 291 291 292 289 281 275 268 258 257 255 252 253 253 256
247 246 245 245 247 252 260 271 273 274 276 278 271 260 252 245 240 240 239 242 245 245 242 239 237 235 237 240 240 243 244 238 239 243 246 253 269 274 268 270 269 265 265 266 269 272 272 270 266 263 260 260 262 265 269 277 280 284 290 292 291 299 312 318 319 323 317 307 305 306 304 300 302 299 294 291 287 282 275 274 271 268 268 274 270
241 240 242 241 241 241 243 243 246 249 255 263 266 260 248 240 237 235 237 242 245 245 244 241 238 238 238 240 243 247 244 246 245 244 244 247 261 268 266 269 269 268 266 267 268 269 270 271 270 267 264 263 262 258 259 264 269 273 276 279 283 285 286 288 292 295 301 307 311 315 311 307 308 307 300 296 298 295 294 291 284 282 286 293 300
243 241 243 244 244 243 241 243 246 249 250 245 245 244 237 232 234 235 238 239 241 243 241 242 243 243 242 243 246 246 245 244 244 246 245 243 248 256 261 264 266 267 269 268 266 267 267 268 268 268 266 265 261 258 255 256 261 265 266 268 270 277 280 285 291 294 296 292 296 298 296 291 285 288 286 284 282 285 289 295 294 295 301 303 303
243 243 242 242 244 243 240 nan 244 247 243 242 236 229 226 226 232 234 237 238 242 241 241 240 241 242 243 245 246 246 247 244 240 242 243 237 246 254 254 257 259 261 263 263 266 267 267 265 264 263 264 263 256 253 251 253 260 262 262 260 261 262 268 272 299 314 315 317 319 313 302 293 294 298 298 297 292 279 277 283 294 297 300 298 290
243 244 243 240 241 239 240 242 242 240 238 233 232 230 226 225 228 230 235 239 238 238 241 243 244 243 243 245 245 246 248 241 237 240 240 238 243 251 253 254 256 258 258 258 259 261 261 260 257 259 258 258 256 256 251 251 253 252 253 253 253 258 262 265 268 282 306 311 313 315 315 310 306 303 297 294 295 292 295 297 293 286 294 295 289
242 244 243 242 240 241 242 243 243 242 244 244 244 244 238 233 229 228 234 237 236 236 240 244 245 245 245 245 244 248 252 248 244 245 242 239 243 253 253 255 255 254 256 260 261 260 260 263 257 255 258 261 259 257 253 249 249 246 245 246 248 250 257 256 259 259 261 265 274 283 288 298 295 291 292 305 305 302 302 304 293 294 295 290 284
nan 244 245 245 243 nan 242 241 238 236 238 240 242 242 241 237 233 234 236 237 239 242 248 252 250 245 243 244 246 249 253 249 247 247 245 243 240 250 252 254 253 254 254 255 259 260 258 262 266 262 261 255 254 256 258 258 256 253 250 249 248 247 245 245 251 253 254 260 265 268 270 268 271 278 282 286 294 301 304 303 300 295 291 288 287
247 nan 245 246 246 243 nan nan 237 232 230 234 236 237 237 236 234 235 238 239 239 239 nan 244 250 251 248 248 250 250 248 249 248 246 244 243 241 245 253 249 248 251 256 258 260 259 257 255 257 258 248 244 243 244 254 258 264 262 264 259 255 250 248 255 254 254 258 260 264 267 268 270 274 277 280 283 286 287 292 297 293 290 289 287 285
nan nan nan 245 242 239 238 237 nan 234 231 231 235 238 237 236 235 234 236 237 239 238 nan 245 249 250 250 249 249 250 248 244 248 247 243 241 241 240 248 247 242 247 254 259 259 258 253 252 253 252 243 238 236 239 241 250 261 266 268 268 259 253 260 262 262 263 264 262 261 261 263 265 265 269 274 277 280 282 282 282 285 287 289 290 291
245 245 245 246 246 244 241 239 239 238 236 234 236 239 238 237 236 nan nan nan nan nan nan nan nan nan 250 249 249 248 248 249 244 248 248 243 239 241 242 244 236 248 253 257 257 256 253 250 249 243 236 234 235 237 240 242 253 266 265 263 262 263 267 270 267 265 265 265 265 265 266 267 267 268 271 271 274 275 277 280 282 285 288 292 297
nan nan 248 248 nan nan nan 243 242 241 239 239 240 241 nan nan nan nan nan nan nan nan nan nan nan nan nan nan nan nan 248 251 251 247 249 248 244 245 249 249 249 249 251 253 253 254 253 253 250 238 238 238 238 240 243 248 258 253 256 258 260 265 268 267 269 268 264 264 265 266 266 266 266 267 267 268 269 270 274 278 282 285 287 289 293
nan nan nan 249 nan nan 247 nan 245 244 nan nan nan nan nan nan nan nan nan nan nan nan nan nan nan nan nan nan nan nan nan nan nan nan nan nan nan nan 253 256 253 248 251 255 251 251 251 249 247 244 244 nan nan nan nan nan nan nan nan nan nan nan 264 262 261 262 263 263 263 263 262 263 264 263 263 263 265 269 274 277 278 279 282 285 289
nan nan nan nan nan nan nan nan nan nan nan nan nan nan nan nan nan nan nan nan nan nan nan nan nan nan nan nan nan nan nan nan nan nan nan nan nan nan nan nan nan nan nan nan nan nan nan nan nan nan nan nan nan nan nan nan nan nan nan nan nan nan 261 261 261 261 261 261 260 260 259 259 259 259 260 264 266 268 268 270 272 275 278 281 284
nan nan nan nan nan nan nan nan nan nan nan nan nan nan nan nan nan nan nan nan nan nan nan nan nan nan nan nan nan nan nan nan nan nan nan nan nan nan nan nan nan nan nan nan nan nan nan nan nan nan nan nan nan nan nan nan nan nan nan nan nan 262 264 265 263 261 260 259 259 259 258 257 257 259 260 261 263 265 266 267 269 270 271 274 276
nan nan nan nan nan nan nan nan nan nan nan nan nan nan nan nan nan nan nan nan nan nan nan nan nan nan nan nan nan nan nan nan nan nan nan nan nan nan nan nan nan nan nan nan nan nan nan nan nan nan nan nan nan nan nan nan nan nan nan nan nan 263 nan nan 269 267 265 262 260 258 257 258 258 258 258 260 260 262 264 265 266 267 269 269 271
nan nan nan nan nan nan nan nan nan nan nan nan nan nan nan nan nan nan nan nan nan nan nan nan nan nan nan nan nan nan nan nan nan nan nan nan nan nan nan nan nan nan nan nan nan nan nan nan nan nan nan nan nan nan nan nan nan nan nan nan nan nan nan nan nan 264 263 263 262 259 259 258 259 259 259 259 260 260 262 263 265 266 268 271 271
nan nan nan nan nan nan nan nan nan nan nan nan nan nan nan nan nan nan nan nan nan nan nan nan nan nan nan nan nan nan nan nan nan nan nan nan nan nan nan nan nan nan nan nan nan nan nan nan nan nan nan nan nan nan nan nan nan nan nan nan nan nan nan nan nan nan nan nan nan nan nan nan nan nan nan nan nan nan 263 267 266 266 264 264 265
nan nan nan nan nan nan nan nan nan nan nan nan nan nan nan nan nan nan nan nan nan nan nan nan nan nan nan nan nan nan nan nan nan nan nan nan nan nan nan nan nan nan nan nan nan nan nan nan nan nan nan nan nan nan nan nan nan nan nan nan nan nan nan nan nan nan nan nan nan nan nan nan nan nan nan nan nan nan nan 265 266 267 267 265 265
nan nan nan nan nan nan nan nan nan nan nan nan nan nan nan nan nan nan nan nan nan nan nan nan nan nan nan nan nan nan nan nan nan nan nan nan nan nan nan nan nan nan nan nan nan nan nan nan nan nan nan nan nan nan nan nan nan nan nan nan nan nan nan nan nan nan nan nan nan nan nan nan nan nan nan nan nan nan nan nan nan nan nan 267 265
nan nan nan nan nan nan nan nan nan nan nan nan nan nan nan nan nan nan nan nan nan nan nan nan nan nan nan nan nan nan nan nan nan nan nan nan nan nan nan nan nan nan nan nan nan nan nan nan nan nan nan nan nan nan nan nan nan nan nan nan nan nan nan nan nan nan nan nan nan nan nan nan nan nan nan nan nan nan nan nan nan nan nan nan nan
nan nan nan nan nan nan nan nan nan nan nan nan nan nan nan nan nan nan nan nan nan nan nan nan nan nan nan nan nan nan nan nan nan nan nan nan nan nan nan nan nan nan nan nan nan nan nan nan nan nan nan nan nan nan nan nan nan nan nan nan nan nan nan nan nan nan nan nan nan nan nan nan nan nan nan nan nan nan nan nan nan nan nan nan nan
nan nan nan nan nan nan nan nan nan nan nan nan nan nan nan nan nan nan nan nan nan nan nan nan nan nan nan nan nan nan nan nan nan nan nan nan nan nan nan nan nan nan nan nan nan nan nan nan nan nan nan nan nan nan nan nan nan nan nan nan nan nan nan nan nan nan nan nan nan nan nan nan nan nan nan nan nan nan nan nan nan nan nan nan nan
nan nan nan nan nan nan nan nan nan nan nan nan nan nan nan nan nan nan nan nan nan nan nan nan nan nan nan nan nan nan nan nan nan nan nan nan nan nan nan nan nan nan nan nan nan nan nan nan nan nan nan nan nan nan nan nan nan nan nan nan nan nan nan nan nan nan nan nan nan nan nan nan nan nan nan nan nan nan nan nan nan nan nan nan nan
nan nan nan nan nan nan nan nan nan nan nan nan nan nan nan nan nan nan nan nan nan nan nan nan nan nan nan nan nan nan nan nan nan nan nan nan nan nan nan nan nan nan nan nan nan nan nan nan nan nan nan nan nan nan nan nan nan nan nan nan nan nan nan nan nan nan nan nan nan nan nan nan nan nan nan nan nan nan nan nan nan nan nan nan nan
nan nan nan nan nan nan nan nan nan nan nan nan nan nan nan nan nan nan nan nan nan nan nan nan nan nan nan nan nan nan nan nan nan nan nan nan nan nan nan nan nan nan nan nan nan nan nan nan nan nan nan nan nan nan nan nan nan nan nan nan nan nan nan nan nan nan nan nan nan nan nan nan nan nan nan nan nan nan nan nan nan nan nan nan nan
nan nan nan nan nan nan nan nan nan nan nan nan nan nan nan nan nan nan nan nan nan nan nan nan nan nan nan nan nan nan nan nan nan nan nan nan nan nan nan nan nan nan nan nan nan nan nan nan nan nan nan nan nan nan nan nan nan nan nan nan nan nan nan nan nan nan nan nan nan nan nan nan nan nan nan nan nan nan nan nan nan nan nan nan nan
nan nan nan nan nan nan nan nan nan nan nan nan nan nan nan nan nan nan nan nan nan nan nan nan nan nan nan nan nan nan nan nan nan nan nan nan nan nan nan nan nan nan nan nan nan nan nan nan nan nan nan nan nan nan nan nan nan nan nan nan nan nan nan nan nan nan nan nan nan nan nan nan nan nan nan nan nan nan nan nan nan nan nan nan nan
nan nan nan nan nan nan nan nan nan nan nan nan nan nan nan nan nan nan nan nan nan nan nan nan nan nan nan nan nan nan nan nan nan nan nan nan nan nan nan nan nan nan nan nan nan nan nan nan nan nan nan nan nan nan nan nan nan nan nan nan nan nan nan nan nan nan nan nan nan nan nan nan nan nan nan nan nan nan nan nan nan nan nan nan nan
nan nan nan nan nan nan nan nan nan nan nan nan nan nan nan nan nan nan nan nan nan nan nan nan nan nan nan nan nan nan nan nan nan nan nan nan nan nan nan nan nan nan nan nan nan nan nan nan nan nan nan nan nan nan nan nan nan nan nan nan nan nan nan nan nan nan nan nan nan nan nan nan nan nan nan nan nan nan nan nan nan nan nan nan nan
nan nan nan nan nan nan nan nan nan nan nan nan nan nan nan nan nan nan nan nan nan nan nan nan nan nan nan nan nan nan nan nan nan nan nan nan nan nan nan nan nan nan nan nan nan nan nan nan nan nan nan nan nan nan nan nan nan nan nan nan nan nan nan nan nan nan nan nan nan nan nan nan nan nan nan nan nan nan nan nan nan nan nan nan nan
nan nan nan nan nan nan nan nan nan nan nan nan nan nan nan nan nan nan nan nan nan nan nan nan nan nan nan nan nan nan nan nan nan nan nan nan nan nan nan nan nan nan nan nan nan nan nan nan nan nan nan nan nan nan nan nan nan nan nan nan nan nan nan nan nan nan nan nan nan nan nan nan nan nan nan nan nan nan nan nan nan nan nan nan nan
nan nan nan nan nan nan nan nan nan nan nan nan nan nan nan nan nan nan nan nan nan nan nan nan nan nan nan nan nan nan nan nan nan nan nan nan nan nan nan nan nan nan nan nan nan nan nan nan nan nan nan nan nan nan nan nan nan nan nan nan nan nan nan nan nan nan nan nan nan nan nan nan nan nan nan nan nan nan nan nan nan nan nan nan nan
nan nan nan nan nan nan nan nan nan nan nan nan nan nan nan nan nan nan nan nan nan nan nan nan nan nan nan nan nan nan nan nan nan nan nan nan nan nan nan nan nan nan nan nan nan nan nan nan nan nan nan nan nan nan nan nan nan nan nan nan nan nan nan nan nan nan nan nan nan nan nan nan nan nan nan nan nan nan nan nan nan nan nan nan nan
nan nan nan nan nan nan nan nan nan nan nan nan nan nan nan nan nan nan nan nan nan nan nan nan nan nan nan nan nan nan nan nan nan nan nan nan nan nan nan nan nan nan nan nan nan nan nan nan nan nan nan nan nan nan nan nan nan nan nan nan nan nan nan nan nan nan nan nan nan nan nan nan nan nan nan nan nan nan nan nan nan nan nan nan nan
nan nan nan nan nan nan nan nan nan nan nan nan nan nan nan nan nan nan nan nan nan nan nan nan nan nan nan nan nan nan nan nan nan nan nan nan nan nan nan nan nan nan nan nan nan nan nan nan nan nan nan nan nan nan nan nan nan nan nan nan nan nan nan nan nan nan nan nan nan nan nan nan nan nan nan nan nan nan nan nan nan nan nan nan nan
nan nan nan nan nan nan nan nan nan nan nan nan nan nan nan nan nan nan nan nan nan nan nan nan nan nan nan nan nan nan nan nan nan nan nan nan nan nan nan nan nan nan nan nan nan nan nan nan nan nan nan nan nan nan nan nan nan nan nan nan nan nan nan nan nan nan nan nan nan nan nan nan nan nan nan nan nan nan nan nan nan nan nan nan nan
nan nan nan nan nan nan nan nan nan nan nan nan nan nan nan nan nan nan nan nan nan nan nan nan nan nan nan nan nan nan nan nan nan nan nan nan nan nan nan nan nan nan nan nan nan nan nan nan nan nan nan nan nan nan nan nan nan nan nan nan nan nan nan nan nan nan nan nan nan nan nan nan nan nan nan nan nan nan nan nan nan nan nan nan nan
nan nan nan nan nan nan nan nan nan nan nan nan nan nan nan nan nan nan nan nan nan nan nan nan nan nan nan nan nan nan nan nan nan nan nan nan nan nan nan nan nan nan nan nan nan nan nan nan nan nan nan nan nan nan nan nan nan nan nan nan nan nan nan nan nan nan nan nan nan nan nan nan nan nan nan nan nan nan nan nan nan nan nan nan nan